Stündliche Wetter Barmer

Heute, 23 Oktober, Freitag

Zeit Temperatur Niederschläge Wind Luftdruck Luftfeuchtigkeit
00:00 +30°C° 0 mm 3 m/S 736 mmHg 12%
01:00 +29°C° 0 mm 2 m/S 735 mmHg 12%
02:00 +28°C° 0 mm 2 m/S 735 mmHg 13%
03:00 +28°C° 0 mm 2 m/S 735 mmHg 13%
04:00 +27°C° 0 mm 2 m/S 735 mmHg 14%
05:00 +27°C° 0 mm 2 m/S 735 mmHg 14%
06:00 +28°C° 0 mm 2 m/S 735 mmHg 14%
07:00 +29°C° 0 mm 2 m/S 736 mmHg 13%
08:00 +30°C° 0 mm 2 m/S 737 mmHg 12%
09:00 +31°C° 0 mm 2 m/S 737 mmHg 11%
10:00 +34°C° 0 mm 2 m/S 737 mmHg 10%
11:00 +36°C° 0 mm 2 m/S 737 mmHg 9%
12:00 +36°C° 0 mm 2 m/S 736 mmHg 9%
13:00 +37°C° 0 mm 2 m/S 736 mmHg 9%
14:00 +38°C° 0 mm 2 m/S 735 mmHg 8%
15:00 +38°C° 0 mm 2 m/S 735 mmHg 9%
16:00 +37°C° 0 mm 3 m/S 735 mmHg 9%
17:00 +37°C° 0 mm 3 m/S 735 mmHg 10%
18:00 +35°C° 0 mm 2 m/S 735 mmHg 12%
19:00 +34°C° 0 mm 2 m/S 735 mmHg 14%
20:00 +31°C° 0 mm 1 m/S 736 mmHg 16%
21:00 +31°C° 0 mm 1 m/S 736 mmHg 16%
22:00 +30°C° 0 mm 2 m/S 736 mmHg 16%
23:00 +30°C° 0 mm 2 m/S 736 mmHg 16%

Morgen, 24 Oktober, Samstag

Zeit Temperatur Niederschläge Wind Luftdruck Luftfeuchtigkeit
00:00 +29°C° 0 mm 2 m/S 736 mmHg 19%
01:00 +29°C° 0 mm 3 m/S 736 mmHg 21%
02:00 +28°C° 0 mm 4 m/S 735 mmHg 24%
03:00 +27°C° 0 mm 4 m/S 735 mmHg 26%
04:00 +27°C° 0 mm 3 m/S 735 mmHg 28%
05:00 +26°C° 0 mm 3 m/S 735 mmHg 30%
06:00 +27°C° 0 mm 3 m/S 736 mmHg 27%
07:00 +28°C° 0 mm 3 m/S 736 mmHg 25%
08:00 +28°C° 0 mm 2 m/S 737 mmHg 22%
09:00 +30°C° 0 mm 2 m/S 737 mmHg 19%
10:00 +32°C° 0 mm 2 m/S 737 mmHg 16%
11:00 +35°C° 0 mm 2 m/S 737 mmHg 14%
12:00 +35°C° 0 mm 3 m/S 737 mmHg 13%
13:00 +36°C° 0 mm 3 m/S 736 mmHg 12%
14:00 +37°C° 0 mm 3 m/S 736 mmHg 11%
15:00 +36°C° 0 mm 3 m/S 736 mmHg 12%
16:00 +36°C° 0 mm 4 m/S 735 mmHg 13%
17:00 +35°C° 0 mm 4 m/S 735 mmHg 13%
18:00 +34°C° 0 mm 4 m/S 736 mmHg 17%
19:00 +33°C° 0 mm 4 m/S 736 mmHg 21%
20:00 +32°C° 0 mm 4 m/S 737 mmHg 25%
21:00 +30°C° 0 mm 4 m/S 737 mmHg 27%
22:00 +30°C° 0 mm 3 m/S 737 mmHg 29%
23:00 +29°C° 0 mm 3 m/S 737 mmHg 31%

übermorgen, 25 Oktober, Sonntag

Zeit Temperatur Niederschläge Wind Luftdruck Luftfeuchtigkeit
00:00 +29°C° 0 mm 3 m/S 737 mmHg 33%
01:00 +28°C° 0 mm 3 m/S 737 mmHg 35%
02:00 +28°C° 0 mm 2 m/S 737 mmHg 37%
03:00 +28°C° 0 mm 3 m/S 737 mmHg 37%
04:00 +27°C° 0 mm 3 m/S 737 mmHg 37%
05:00 +27°C° 0 mm 3 m/S 738 mmHg 38%
06:00 +27°C° 0 mm 3 m/S 738 mmHg 37%
07:00 +28°C° 0 mm 3 m/S 739 mmHg 36%
08:00 +28°C° 0 mm 3 m/S 739 mmHg 35%
09:00 +30°C° 0 mm 3 m/S 739 mmHg 33%
10:00 +31°C° 0 mm 3 m/S 740 mmHg 30%
11:00 +34°C° 0 mm 2 m/S 740 mmHg 28%
12:00 +34°C° 0 mm 2 m/S 739 mmHg 26%
13:00 +35°C° 0 mm 3 m/S 739 mmHg 24%
14:00 +36°C° 0 mm 3 m/S 738 mmHg 22%
15:00 +35°C° 0 mm 3 m/S 738 mmHg 22%
16:00 +35°C° 0 mm 3 m/S 738 mmHg 22%
17:00 +35°C° 0 mm 2 m/S 738 mmHg 22%
18:00 +34°C° 0 mm 2 m/S 738 mmHg 24%
19:00 +32°C° 0 mm 2 m/S 738 mmHg 26%
20:00 +31°C° 0 mm 1 m/S 739 mmHg 28%
21:00 +31°C° 0 mm 1 m/S 739 mmHg 30%
22:00 +30°C° 0 mm 1 m/S 739 mmHg 31%
23:00 +30°C° 0 mm 1 m/S 739 mmHg 32%

, 26 Oktober, Montag

Zeit Temperatur Niederschläge Wind Luftdruck Luftfeuchtigkeit
00:00 +29°C° 0 mm 2 m/S 739 mmHg 34%
01:00 +29°C° 0 mm 2 m/S 739 mmHg 35%
02:00 +28°C° 0 mm 2 m/S 739 mmHg 36%
03:00 +28°C° 0 mm 3 m/S 739 mmHg 37%
04:00 +28°C° 0 mm 3 m/S 739 mmHg 38%
05:00 +27°C° 0 mm 3 m/S 739 mmHg 39%
06:00 +28°C° 0 mm 3 m/S 740 mmHg 37%
07:00 +29°C° 0 mm 3 m/S 740 mmHg 35%
08:00 +29°C° 0 mm 3 m/S 741 mmHg 33%
09:00 +31°C° 0 mm 2 m/S 741 mmHg 29%
10:00 +32°C° 0 mm 2 m/S 741 mmHg 26%
11:00 +34°C° 0 mm 1 m/S 741 mmHg 22%
12:00 +34°C° 0 mm 1 m/S 740 mmHg 21%
13:00 +35°C° 0 mm 1 m/S 740 mmHg 19%
14:00 +35°C° 0 mm 1 m/S 739 mmHg 18%
15:00 +35°C° 0 mm 1 m/S 739 mmHg 17%
16:00 +35°C° 0 mm 1 m/S 739 mmHg 17%
17:00 +35°C° 0 mm 1 m/S 739 mmHg 17%
18:00 +35°C° 0 mm 2 m/S 739 mmHg 19%
19:00 +34°C° 0 mm 2 m/S 739 mmHg 21%
20:00 +32°C° 0 mm 2 m/S 739 mmHg 23%
21:00 +31°C° 0 mm 2 m/S 739 mmHg 24%
22:00 +31°C° 0 mm 1 m/S 739 mmHg 26%
23:00 +30°C° 0 mm 1 m/S 739 mmHg 27%

26 Oktober, Montag

Zeit Temperatur Niederschläge Wind Luftdruck Luftfeuchtigkeit
00:00 +29°C° 0 mm 2 m/S 739 mmHg 34%
01:00 +29°C° 0 mm 2 m/S 739 mmHg 35%
02:00 +28°C° 0 mm 2 m/S 739 mmHg 36%
03:00 +28°C° 0 mm 3 m/S 739 mmHg 37%
04:00 +28°C° 0 mm 3 m/S 739 mmHg 38%
05:00 +27°C° 0 mm 3 m/S 739 mmHg 39%
06:00 +28°C° 0 mm 3 m/S 740 mmHg 37%
07:00 +29°C° 0 mm 3 m/S 740 mmHg 35%
08:00 +29°C° 0 mm 3 m/S 741 mmHg 33%
09:00 +31°C° 0 mm 2 m/S 741 mmHg 29%
10:00 +32°C° 0 mm 2 m/S 741 mmHg 26%
11:00 +34°C° 0 mm 1 m/S 741 mmHg 22%
12:00 +34°C° 0 mm 1 m/S 740 mmHg 21%
13:00 +35°C° 0 mm 1 m/S 740 mmHg 19%
14:00 +35°C° 0 mm 1 m/S 739 mmHg 18%
15:00 +35°C° 0 mm 1 m/S 739 mmHg 17%
16:00 +35°C° 0 mm 1 m/S 739 mmHg 17%
17:00 +35°C° 0 mm 1 m/S 739 mmHg 17%
18:00 +35°C° 0 mm 2 m/S 739 mmHg 19%
19:00 +34°C° 0 mm 2 m/S 739 mmHg 21%
20:00 +32°C° 0 mm 2 m/S 739 mmHg 23%
21:00 +31°C° 0 mm 2 m/S 739 mmHg 24%
22:00 +31°C° 0 mm 1 m/S 739 mmHg 26%
23:00 +30°C° 0 mm 1 m/S 739 mmHg 27%

27 Oktober, Dienstag

Zeit Temperatur Niederschläge Wind Luftdruck Luftfeuchtigkeit
00:00 +30°C° 0 mm 2 m/S 739 mmHg 27%
01:00 +29°C° 0 mm 2 m/S 739 mmHg 27%
02:00 +29°C° 0 mm 2 m/S 739 mmHg 27%
03:00 +29°C° 0 mm 3 m/S 739 mmHg 27%
04:00 +28°C° 0 mm 3 m/S 739 mmHg 28%
05:00 +28°C° 0 mm 3 m/S 739 mmHg 28%
06:00 +29°C° 0 mm 3 m/S 739 mmHg 28%
07:00 +29°C° 0 mm 3 m/S 739 mmHg 28%
08:00 +29°C° 0 mm 2 m/S 740 mmHg 28%
09:00 +31°C° 0 mm 2 m/S 740 mmHg 26%
10:00 +32°C° 0 mm 1 m/S 740 mmHg 23%
11:00 +32°C° 0 mm 0 m/S 740 mmHg 20%
12:00 +35°C° 0 mm 1 m/S 740 mmHg 19%
13:00 +36°C° 0 mm 2 m/S 739 mmHg 17%
14:00 +37°C° 0 mm 2 m/S 738 mmHg 16%
15:00 +37°C° 0 mm 3 m/S 738 mmHg 16%
16:00 +36°C° 0 mm 3 m/S 738 mmHg 16%
17:00 +36°C° 0 mm 3 m/S 738 mmHg 17%
18:00 +35°C° 0 mm 3 m/S 738 mmHg 18%
19:00 +34°C° 0 mm 2 m/S 739 mmHg 20%
20:00 +32°C° 0 mm 2 m/S 739 mmHg 22%
21:00 +31°C° 0 mm 2 m/S 739 mmHg 23%
22:00 +31°C° 0 mm 2 m/S 739 mmHg 24%
23:00 +30°C° 0 mm 2 m/S 739 mmHg 25%

28 Oktober, Mittwoch

Zeit Temperatur Niederschläge Wind Luftdruck Luftfeuchtigkeit
00:00 +30°C° 0 mm 2 m/S 738 mmHg 26%
01:00 +29°C° 0 mm 3 m/S 738 mmHg 27%
02:00 +29°C° 0 mm 4 m/S 738 mmHg 28%
03:00 +28°C° 0 mm 4 m/S 738 mmHg 30%
04:00 +28°C° 0 mm 4 m/S 738 mmHg 33%
05:00 +27°C° 0 mm 4 m/S 738 mmHg 35%
06:00 +28°C° 0 mm 3 m/S 739 mmHg 33%
07:00 +28°C° 0 mm 3 m/S 739 mmHg 32%
08:00 +29°C° 0 mm 2 m/S 740 mmHg 30%
09:00 +31°C° 0 mm 2 m/S 740 mmHg 28%
10:00 +32°C° 0 mm 2 m/S 740 mmHg 25%
11:00 +34°C° 0 mm 2 m/S 740 mmHg 22%
12:00 +35°C° 0 mm 2 m/S 739 mmHg 21%
13:00 +36°C° 0 mm 3 m/S 739 mmHg 19%
14:00 +37°C° 0 mm 4 m/S 738 mmHg 17%
15:00 +36°C° 0 mm 4 m/S 738 mmHg 17%
16:00 +36°C° 0 mm 4 m/S 738 mmHg 18%
17:00 +36°C° 0 mm 3 m/S 738 mmHg 18%
18:00 +34°C° 0 mm 3 m/S 738 mmHg 20%
19:00 +33°C° 0 mm 3 m/S 738 mmHg 22%
20:00 +31°C° 0 mm 3 m/S 739 mmHg 24%
21:00 +31°C° 0 mm 3 m/S 739 mmHg 26%
22:00 +30°C° 0 mm 3 m/S 739 mmHg 27%
23:00 +30°C° 0 mm 3 m/S 739 mmHg 29%
Mehr zeigen